Location: Ernsee
(50.8780°N, 12.0389°E)
Time: 06:57:32
(UTC+00:00)

Lacrosse 5 rocket - Pass Details

Date: 20 January 2020
Orbit: 465 x 632 km, 57.0° (Epoch: 24 February)

Event Time Altitude Azimuth Distance (km) Brightness Sun altitude
Exits shadow 05:00:15 35° 317° (NW) 1,013 2.2 -19.0°
Maximum altitude 05:01:17 41° 350° (N) 917 2.2 -18.9°
Drops below altitude 10° 05:05:33 10° 61° (ENE) 1,969 4.9 -18.2°
Sets 05:07:55 0° 69° (ENE) 2,850 6.0 -17.8°
